Location: �bnet
(46.9957°N, 8.4908°E)
Time: 08:31:58
(UTC+00:00)

Cosmos 968 Rocket - Pass Details

Date: 11 May 2021
Orbit: 741 x 770 km, 74.0° (Epoch: 13 June)

Event Time Altitude Azimuth Distance (km) Brightness Sun altitude
Rises 19:30:02 0° 209° (SSW) 3,226 6.7 -6.6°
Reaches altitude 10° 19:32:25 10° 213° (SSW) 2,302 6.0 -7.0°
Maximum altitude 19:37:36 64° 295° (WNW) 847 4.1 -7.7°
Drops below altitude 10° 19:42:48 10° 17° (NNE) 2,302 6.3 -8.4°
Sets 19:45:12 0° 21° (NNE) 3,227 7.0 -8.7°
